Probability
0 0 0 0 0 0 0 0 0 0 0 0 0 0 0 0 0 0 0 0 0 0 0 0 0 0 0 0 0 0 0 0 0 0 0 0 0 0 0 0 0 0 0
0 0 0 0 0 0 0 0 0 0 0 0 0 0 0 0 0 0 0 0 0 0 0 0 0 0 0 0 0 0 0 0 0 0 0 0 0 0 0 0 0 0 0
0 0 0 0 0 0 0 0 0 0 0 0 0 0 0 0 0 0 0 0 0 0 0 0 0 0 0 0 0 0 0 0 0 0 0 0 0 0 0 0 0 0 0
0 0 0 0 0 0 0 0 0 0 0 0 0 0 0 0 0 0 0 0 0 0 0 0 0 0 0 0 0 0 0 0 0 0 0 0 0 0 0 0 0 0 0
0 0 0 0 0 0 0 0 0 0 0 0 0 0 0 0 0 0 0 0 0 0 0 0 0 0 0 0 0 0 0 0 0 0 0 0 0 0 0 0 0 0 0
0 0 0 0 0 0 0 0 0 0 0 0 0 0 0 0 0 0 0 0 0 0 0 0 0 0 0 0 0 0 0 0 0 0 0 0 0 0 0 0 0 0 0
0 0 0 0 0 0 0 0 0 0 0 0 0 0 0 0 0 0 0 0 0 0 0 0 0 0 0 0 0 0 0 0 0 0 0 0 0 0 0 0 0 0 0
0 0 0 0 0 0 0 0 0 0 0 0 0 0 0 0 0 0 0 0 0 0 0 0 0 0 0 0 0 0 0 0 0 0 0 0 0 0 0 0 0 0 0
0 0 0 0 0 0 0 0 0 0 0 0 0 0 0 0 0 0 0 0 0 0 0 0 0 0 0 0 0 0 0 0 0 0 0 0 0 0 0 0 0 0 0
0 0 0 0 0 0 0 0 0 0 0 0 0 0 0 0 0 0 0 0 0 0 0 0 0 0 0 0 0 0 0 0 0 0 0 0 0 0 0 0 0 0 0
0 0 0 0 0 0 0 0 0 0 0 0 0 0 0 0 0 0 0 0 0 0 0 0 0 0 0 0 0 0 0 0 0 0 0 0 0 0 0 0 0 0 0
0 0 0 0 0 0 0 0 0 0 0 0 0 0 0 0 0 0 0 0 0 0 0 0 0 0 0 0 0 0 0 0 0 0 0 0 0 0 0 0 0 0 0
0 0 0 0 0 0 0 0 0 0 0 0 0 0 0 0 0 0 0 0 0 0 0 0 0 0 0 0 0 0 0 0 0 0 0 0 0 0 0 0 0 0 0
0 0 0 0 0 0 0 0 0 0 0 0 0 0 0 0 0 0 0 0 0 0 0 0 0 0 0 0 0 0 0 0 0 0 0 0 0 0 0 0 0 0 0
0 0 0 0 0 0 0 0 0 0 0 0 0 0 0 0 0 0 0 0 0 0 0 0 0 0 0 0 0 0 0 0 0 0 0 0 0 0 0 0 0 0 0
0 0 0 0 0 0 0 0 0 0 0 0 0 0 0 0 0 0 0 0 0 0 0 0 0 0 0 0 0 0 0 0 0 0 0 0 0 0 0 0 0 0 0
0 0 0 0 0 0 0 0 0 0 0 0 0 0 0 0 0 0 0 0 0 0 0 0 0 0 0 0 0 0 0 0 0 0 0 0 0 0 0 0 0 0 0
0 0 0 0 0 0 0 0 0 0 0 0 0 0 0 0 0 0 0 0 0 0 0 0 0 0 0 0 0 0 0 0 0 0 0 0 0 0 0 0 0 0 0
0 0 0 0 0 0 0 0 0 0 0 0 0 0 0 0 0 0 0 0 0 0 0 0 0 0 0 0 0 0 0 0 0 0 0 0 0 0 0 0 0 0 0
0 0 0 0 0 0 0 0 0 0 0 0 0 0 0 0 0 0 0 0 0 0 0 0 0 0 0 0 0 0 0 0 0 0 0 0 0 0 0 0 0 0 0
0 0 0 0 0 0 0 0 0 0 0 0 0 0 0 0 0 0 0 0 0 0 0 0 0 0 0 0 0 0 0 0 0 0 0 0 0 0 0 0 0 0 0
0 0 0 0 0 0 0 0 0 0 0 0 0 0 0 0 0 0 0 0 0 0 0 0 0 0 0 0 0 0 0 0 0 0 0 0 0 0 0 0 0 0 0
0 0 0 0 0 0 0 0 0 0 0 0 0 0 0 0 0 0 0 0 0 0 0 0 0 0 0 0 0 0 0 0 0 0 0 0 0 0 0 0 0 0 0
0 0 0 0 0 0 0 0 0 0 0 0 0 0 0 0 0 0 0 0 0 0 0 0 0 0 0 0 0 0 0 0 0 0 0 0 0 0 0 0 0 0 0
0 0 0 0 0 0 0 0 0 0 0 0 0 0 0 0 0 0 0 0 0 0 0 0 0 0 0 0 0 0 0 0 0 0 0 0 0 0 0 0 0 0 0
0 0 0 0 0 0 0 0 0 0 0 0 0 0 0 0 0 0 0 0 0 0 0 0 0 0 0 0 0 0 0 0 0 0 0 0 0 0 0 0 0 0 0
Wind_Speed
5 5 6 5 5 5 4 3 3 2 2 2 1 1 1 1 2 2 3 3 5 5 5 7 9 8 7 7 7 7 8 9 13 10 5 5 7 9 8 9 10 11 11
5 6 6 5 5 5 4 4 3 2 2 2 2 2 2 2 2 2 3 4 5 6 6 7 8 6 8 7 7 9 9 9 10 14 8 6 8 8 9 9 9 9 10
5 6 6 5 5 4 4 3 3 3 2 2 2 2 2 2 3 3 3 4 5 6 6 7 7 7 8 7 8 8 7 7 9 11 11 6 5 5 7 8 9 9 10
5 6 5 4 4 4 3 3 3 3 3 3 2 2 2 3 3 3 3 4 5 6 6 6 7 7 8 8 7 8 7 8 8 10 10 8 5 3 4 7 8 8 9
5 6 5 4 4 3 3 3 3 3 3 3 2 3 3 3 3 4 4 5 6 6 6 6 7 7 9 9 7 8 7 8 8 9 10 8 6 4 6 6 8 7 8
6 5 4 4 4 3 3 3 3 3 3 3 3 3 3 3 5 7 6 5 6 7 7 7 7 7 8 11 13 13 12 10 9 9 9 10 10 8 6 6 6 6 7
5 5 4 3 3 3 3 3 3 3 3 3 3 4 4 5 7 8 7 6 6 7 7 7 6 6 7 8 10 12 12 14 15 12 12 13 11 8 7 8 8 8 8
5 4 4 3 3 3 3 3 3 3 3 3 4 4 5 5 8 9 8 6 7 7 7 7 8 8 7 8 8 9 9 10 11 10 11 11 9 8 7 8 8 7 5
4 4 3 3 3 3 3 3 3 3 4 4 4 5 5 6 8 9 8 5 6 7 7 7 7 8 10 12 10 10 11 9 11 13 15 15 16 15 10 6 6 5 6
3 3 3 3 2 3 3 3 3 3 4 5 5 5 6 7 9 10 9 5 6 7 6 6 7 8 12 13 9 9 11 10 7 8 10 11 10 10 11 9 7 6 5
2 2 2 3 3 3 3 3 4 4 4 5 6 6 6 6 9 10 10 5 6 7 7 6 6 11 14 15 13 9 12 11 8 8 8 7 6 5 5 5 5 6 6
2 2 2 3 3 3 3 4 4 4 5 5 5 6 5 4 6 9 11 10 10 8 8 7 8 13 15 15 12 12 15 12 6 6 6 6 5 4 4 4 4 4 4
2 2 2 3 3 3 4 4 4 4 4 5 5 6 6 5 6 10 11 12 12 9 8 12 14 16 15 11 12 13 9 6 6 6 6 6 4 4 3 3 3 2 2
1 2 2 3 3 3 3 3 4 4 5 5 5 6 7 6 6 5 6 6 8 9 8 8 12 14 11 10 8 7 5 6 6 6 6 5 4 3 3 3 2 2 2
2 2 3 3 4 4 4 4 5 5 6 7 7 7 8 8 8 13 10 8 7 8 8 7 6 6 6 5 5 5 4 4 5 4 4 4 4 3 3 2 2 3 3
2 2 2 3 3 4 5 5 7 8 11 12 13 12 9 12 16 16 16 15 15 14 9 7 6 6 6 6 5 5 4 4 4 4 4 4 4 3 3 2 3 3 3
1 2 3 3 3 4 4 5 7 6 7 9 10 11 12 13 14 14 14 13 12 10 6 5 5 5 5 5 5 5 5 4 4 3 3 3 3 3 3 3 3 3 3
1 2 3 3 4 4 5 5 5 7 7 6 7 10 12 12 12 12 12 10 6 5 4 4 4 4 5 5 5 4 4 4 3 3 3 2 2 2 2 2 2 2 3
2 2 2 3 4 4 5 5 5 6 7 7 6 6 8 10 10 10 9 4 4 4 4 4 4 4 4 4 4 4 4 4 4 3 3 2 2 2 2 2 2 2 2
2 3 3 3 4 4 4 5 5 5 6 6 6 6 6 5 4 5 5 4 3 4 4 4 4 4 4 4 4 4 4 4 3 3 3 2 2 2 2 2 2 2 2
2 2 3 3 3 4 4 4 5 5 5 5 5 6 8 4 4 4 4 4 4 4 4 4 4 4 4 4 4 4 5 4 3 3 3 2 2 2 2 2 2 2 1
2 2 2 3 3 4 4 4 4 5 5 5 5 5 7 4 3 4 4 4 4 4 4 4 4 4 4 4 4 4 4 4 3 3 3 3 2 2 2 2 2 2 2
2 2 2 3 3 4 4 4 4 4 4 4 4 4 4 3 3 4 4 4 4 4 4 4 4 4 4 4 4 4 5 4 4 4 4 4 3 2 2 2 3 3 2
2 2 3 3 3 3 4 4 4 4 4 4 4 4 4 4 4 5 4 4 4 4 4 4 4 6 7 6 5 5 5 5 5 4 5 4 4 3 3 3 3 3 3
1 2 2 3 3 3 4 4 4 4 4 4 4 5 5 5 5 5 5 5 5 5 6 6 5 5 7 8 8 7 8 9 7 4 4 4 4 4 3 3 3 3 3
2 2 2 3 3 3 4 4 4 5 5 5 5 5 5 5 5 5 5 5 5 5 6 5 7 8 9 8 9 9 10 9 7 6 4 3 4 3 3 3 4 3 3
Wind_Direction
100 100 97 91 87 85 79 72 63 55 42 29 1 343 335 321 303 268 260 258 249 249 242 241 244 243 241 236 230 229 232 237 262 270 253 241 221 229 233 233 237 237 239
103 99 93 90 89 85 78 69 62 57 44 24 6 355 346 330 312 290 281 275 267 263 259 256 256 254 250 247 241 238 238 235 250 271 268 247 233 231 233 234 234 235 239
107 103 96 90 85 80 73 63 54 50 44 35 17 2 345 332 315 302 289 282 276 274 272 267 267 264 261 258 255 254 252 249 249 263 272 259 247 229 233 238 239 240 241
109 102 92 81 75 71 64 55 45 37 32 23 12 354 335 322 313 308 297 289 284 280 277 273 272 267 267 268 264 261 261 261 258 262 269 266 252 221 221 240 244 236 240
105 95 87 79 71 66 57 44 35 30 22 10 357 347 337 324 318 311 301 293 290 288 284 277 275 273 271 270 269 271 267 265 264 264 268 270 258 229 231 228 244 250 243
96 88 79 74 67 55 42 31 25 20 10 359 349 335 325 313 310 308 302 292 285 282 283 284 282 275 273 272 271 271 269 268 269 268 270 268 269 260 252 239 244 249 254
91 80 66 59 55 41 27 22 12 0 350 339 332 324 314 313 318 313 305 292 282 279 281 284 282 278 276 278 279 277 272 266 264 266 269 270 275 271 261 253 242 243 253
88 73 53 43 36 24 19 9 354 342 332 321 317 314 307 307 316 314 309 293 285 282 280 279 282 285 281 281 282 278 274 270 267 265 266 272 275 274 258 258 257 253 256
81 66 43 27 14 6 359 346 338 328 319 312 304 303 299 301 309 311 309 294 286 286 283 278 278 281 281 283 281 280 281 278 274 267 267 272 273 271 265 258 246 241 253
64 44 26 12 355 342 331 324 318 309 300 302 296 291 288 291 300 305 306 291 288 290 286 277 270 271 282 284 278 278 281 286 285 282 276 275 273 266 256 246 242 240 252
49 34 24 2 337 325 319 312 308 304 300 296 293 290 285 285 296 302 301 292 288 291 290 288 283 284 285 285 281 274 277 285 284 281 279 276 271 263 252 241 235 237 244
43 28 8 346 333 325 315 308 304 300 297 295 295 295 286 283 287 297 298 294 292 286 286 288 288 290 290 288 285 279 283 285 278 276 274 273 272 269 264 253 243 243 254
37 15 349 337 327 322 311 308 304 298 293 295 295 295 298 298 295 297 296 295 294 287 282 286 291 293 292 288 283 285 284 276 272 271 271 273 274 273 270 261 248 240 246
32 1 346 332 325 325 310 300 296 294 292 291 292 294 298 297 297 300 296 294 290 287 286 286 289 289 286 283 283 281 273 270 269 270 272 274 273 265 257 252 250 232 241
27 352 337 328 323 316 306 290 287 275 272 284 287 289 293 295 297 301 301 294 291 286 291 285 282 284 284 286 285 282 278 272 267 267 269 272 268 264 260 245 239 237 243
6 345 331 320 316 310 309 303 286 284 290 287 283 285 286 288 299 302 302 301 300 297 292 281 282 284 286 290 291 291 288 287 283 278 272 269 267 264 262 248 237 238 246
333 317 310 309 308 309 309 309 310 308 298 300 304 307 304 307 311 311 311 310 308 306 288 281 286 292 294 294 294 293 294 299 295 285 280 277 272 266 261 254 245 243 244
304 301 296 297 299 298 296 295 294 300 306 305 314 317 319 321 322 325 323 316 308 317 300 297 297 299 301 301 301 301 300 301 297 290 285 283 278 268 264 264 259 256 253
299 295 292 291 288 289 291 290 288 288 290 298 306 315 327 324 327 337 341 327 313 314 315 313 312 311 311 310 309 308 305 305 307 303 297 293 285 268 260 264 261 251 251
277 288 291 289 290 291 292 293 293 293 294 298 304 314 323 322 323 334 343 335 325 321 320 317 317 317 315 313 313 313 311 311 315 313 310 304 295 278 263 259 255 252 251
284 289 288 285 286 290 292 291 293 293 293 296 303 314 325 323 317 321 325 329 327 322 319 317 315 317 319 319 316 314 314 314 317 316 311 305 296 283 272 261 251 245 251
278 287 293 292 293 293 295 294 293 294 295 296 302 313 325 321 312 311 314 317 318 315 313 311 309 312 314 314 312 309 305 304 307 307 309 305 297 292 281 262 253 251 241
275 286 291 292 292 294 291 291 293 293 295 298 300 304 308 307 307 306 306 308 308 307 309 307 305 306 309 306 304 301 298 298 300 296 294 295 292 283 275 266 254 250 245
277 286 292 296 296 296 296 296 294 294 295 295 296 296 297 298 297 297 297 297 299 298 299 298 294 295 302 304 300 297 294 294 295 285 278 277 280 276 268 261 258 251 248
269 278 284 289 290 291 292 292 292 294 293 292 293 293 293 292 290 290 291 290 292 290 293 293 288 291 294 296 296 295 297 299 296 289 276 268 267 265 258 254 255 253 244
266 271 274 277 277 279 281 284 286 288 286 286 285 285 285 284 284 284 285 284 287 289 289 288 285 289 293 293 292 293 294 294 289 279 270 261 259 260 257 251 247 247 244